Weather History for Erie, CO

Change the Weather History Date:

Wednesday, February 19, 2014

  Actual Average (KBJC) Record (KBJC)
Temperature  
Mean Temperature 42 °F -  
Max Temperature 61 °F 44 °F 69 °F (2013)
Min Temperature 24 °F 25 °F 0 °F (2006)
Degree Days  
Heating Degree Days 22    
Moisture  
Dew Point 23 °F    
Average Humidity 67    
Maximum Humidity 94    
Minimum Humidity 14    
Precipitation  
Precipitation 0.00 in - - ()
Sea Level Pressure  
Sea Level Pressure 29.65 in    
Wind  
Wind Speed 5 mph (NW)    
Max Wind Speed 26 mph    
Max Gust Speed 33 mph    
Visibility 10 miles    
Events      
Averages and records for this station are not official NWS values.
T = Trace of Precipitation, MM = Missing Value Source: NWS Daily Summary

Daily Weather History Graph

Daily Weather History Graph

Search for Another Location

Airport:

Trip Planner

Search our weather history database for the weather conditions in past years. The results will help you decide how hot, cold, wet, or windy it might be!

Date:

Astronomy

Feb. 19, 2014 Rise Set
Actual Time 6:47 AM MST 5:40 PM MST
Civil Twilight 6:20 AM MST 6:08 PM MST
Nautical Twilight 5:48 AM MST 6:40 PM MST
Astronomical Twilight 5:17 AM MST 7:11 PM MST
Moon 10:36 PM MST (2/19) 8:55 AM MST (2/19)
Length of Visible Light 11h 48m
Length of Day
10h 53m
Waning Gibbous, 79% of the Moon is Illuminated
Feb 19
Waning Gibbous
Feb 22
Last Quarter
Mar 1
New
Mar 8
First Quarter
Mar 16
Full

Hourly Weather History & Observations

Time (MST) Temp. Windchill Dew Point Humidity Pressure Visibility Wind Dir Wind Speed Gust Speed Precip Events Conditions
12:14 AM 30.0 °F - 25.9 °F 85% 29.91 in 10.0 mi Calm Calm - N/A   Clear
12:34 AM 29.8 °F - 26.2 °F 86% 29.90 in 10.0 mi Calm Calm - N/A   Clear
12:54 AM 28.4 °F 23.3 °F 25.7 °F 90% 29.89 in 10.0 mi SSW 4.6 mph - N/A   Clear
1:14 AM 28.2 °F 23.1 °F 25.5 °F 90% 29.88 in 10.0 mi SSW 4.6 mph - N/A   Clear
1:34 AM 27.5 °F - 25.0 °F 90% 29.87 in 10.0 mi Calm Calm - N/A   Clear
1:54 AM 28.9 °F 23.9 °F 25.7 °F 88% 29.84 in 10.0 mi SSW 4.6 mph - N/A   Clear
2:14 AM 30.0 °F 26.5 °F 25.9 °F 85% 29.84 in 10.0 mi East 3.5 mph - N/A   Clear
2:34 AM 29.3 °F 24.3 °F 25.5 °F 86% 29.83 in 10.0 mi South 4.6 mph - N/A   Clear
2:54 AM 28.9 °F - 25.0 °F 85% 29.82 in 10.0 mi Calm Calm - N/A   Clear
3:14 AM 28.2 °F 24.4 °F 25.0 °F 88% 29.81 in 10.0 mi SSW 3.5 mph - N/A   Clear
3:34 AM 27.9 °F - 25.3 °F 90% 29.80 in 10.0 mi Calm Calm - N/A   Clear
3:54 AM 27.5 °F 23.6 °F 25.0 °F 90% 29.78 in 10.0 mi WSW 3.5 mph - N/A   Clear
4:14 AM 27.3 °F - 24.4 °F 89% 29.77 in 10.0 mi Calm Calm - N/A   Clear
4:34 AM 27.0 °F 23.0 °F 24.6 °F 91% 29.77 in 10.0 mi West 3.5 mph - N/A   Clear
4:54 AM 26.4 °F - 24.3 °F 92% 29.75 in 10.0 mi Calm Calm - N/A   Clear
5:14 AM 26.1 °F - 24.1 °F 92% 29.75 in 10.0 mi Calm Calm - N/A   Clear
5:34 AM 25.9 °F - 23.9 °F 92% 29.73 in 10.0 mi Calm Calm - N/A   Clear
5:54 AM 25.3 °F - 23.2 °F 91% 29.74 in 10.0 mi Calm Calm - N/A   Clear
6:14 AM 24.6 °F - 22.8 °F 93% 29.73 in 10.0 mi Calm Calm - N/A   Clear
6:34 AM 25.0 °F - 23.2 °F 93% 29.73 in 10.0 mi Calm Calm - N/A   Clear
6:54 AM 25.2 °F - 22.8 °F 91% 29.73 in 10.0 mi Calm Calm - N/A   Clear
7:14 AM 24.6 °F - 23.0 °F 94% 29.72 in 10.0 mi Calm Calm - N/A   Clear
7:34 AM 25.0 °F - 23.5 °F 94% 29.73 in 10.0 mi Calm Calm - N/A   Clear
7:54 AM 27.9 °F - 26.1 °F 93% 29.72 in 10.0 mi Calm Calm - N/A   Clear
8:14 AM 31.1 °F - 27.5 °F 87% 29.72 in 10.0 mi Calm Calm - N/A   Clear
8:34 AM 33.6 °F - 27.5 °F 78% 29.70 in 10.0 mi Calm Calm - N/A   Clear
8:54 AM 35.4 °F 32.6 °F 28.0 °F 75% 29.70 in 10.0 mi NNW 3.5 mph - N/A   Clear
9:14 AM 37.0 °F - 28.4 °F 71% 29.68 in 10.0 mi Calm Calm - N/A   Clear
9:34 AM 38.7 °F 36.3 °F 27.9 °F 65% 29.68 in 10.0 mi NNE 3.5 mph - N/A   Clear
9:54 AM 40.1 °F - 26.2 °F 58% 29.67 in 10.0 mi Calm Calm - N/A   Clear
10:14 AM 39.4 °F - 26.4 °F 60% 29.66 in 10.0 mi Calm Calm - N/A   Clear
10:34 AM 43.2 °F - 27.5 °F 54% 29.65 in 10.0 mi Calm Calm - N/A   Clear
10:54 AM 43.7 °F - 27.0 °F 52% 29.64 in 10.0 mi Calm Calm - N/A   Clear
11:14 AM 46.0 °F 44.8 °F 24.3 °F 42% 29.63 in 10.0 mi ENE 3.5 mph - N/A   Clear
11:34 AM 50.0 °F - 23.9 °F 36% 29.61 in 10.0 mi ENE 4.6 mph - N/A   Clear
11:54 AM 53.1 °F - 22.8 °F 31% 29.60 in 10.0 mi NW 3.5 mph - N/A   Clear
12:14 PM 56.1 °F - 23.2 °F 28% 29.58 in 10.0 mi Calm Calm - N/A   Scattered Clouds
12:34 PM 57.0 °F - 25.3 °F 30% 29.56 in 10.0 mi NNW 9.2 mph 17.3 mph N/A   Clear
12:54 PM - - - N/A% - - North - - N/A   Unknown
1:16 PM 61.3 °F - 11.3 °F 14% 29.53 in - WNW 18.4 mph 32.2 mph N/A   Clear
1:36 PM - - - N/A% 29.52 in 10.0 mi WNW 16.1 mph 28.8 mph N/A   Clear
1:56 PM - - - N/A% 29.51 in 10.0 mi WNW 16.1 mph 27.6 mph N/A   Clear
1:57 PM - - - N/A% 29.51 in 10.0 mi WNW 16.1 mph 27.6 mph N/A   Clear
2:36 PM 61.9 °F - 12.4 °F 14% 29.49 in 10.0 mi WNW 26.5 mph 32.2 mph N/A   Clear
2:56 PM 61.0 °F - 12.6 °F 15% 29.49 in 10.0 mi WNW 18.4 mph 28.8 mph N/A   Clear
3:16 PM 60.4 °F - 13.5 °F 16% 29.48 in 10.0 mi West 19.6 mph 24.2 mph N/A   Clear
3:36 PM 59.5 °F - 13.6 °F 17% 29.46 in 10.0 mi West 20.7 mph 27.6 mph N/A   Clear
3:56 PM - - - N/A% 29.45 in 10.0 mi West 19.6 mph 25.3 mph N/A   Clear
4:16 PM 58.1 °F - 14.2 °F 18% 29.44 in 10.0 mi West 13.8 mph 20.7 mph N/A   Clear
4:36 PM - - - N/A% 29.43 in 10.0 mi WSW 9.2 mph 20.7 mph N/A   Clear
4:56 PM - - - N/A% 29.43 in 10.0 mi West 5.8 mph 10.4 mph N/A   Clear
5:16 PM - - - N/A% 29.44 in 10.0 mi WSW 9.2 mph - N/A   Clear
5:36 PM - - - N/A% 29.45 in 10.0 mi West 18.4 mph 25.3 mph N/A   Unknown
5:56 PM 51.1 °F - 20.8 °F 31% 29.47 in 10.0 mi West 18.4 mph 29.9 mph N/A   Clear
6:16 PM 47.3 °F - 26.8 °F 45% 29.47 in 10.0 mi West 23.0 mph 33.4 mph N/A   Clear
6:36 PM - - - N/A% 29.47 in 10.0 mi West 12.7 mph 24.2 mph N/A   Clear
6:56 PM - - - N/A% 29.50 in 10.0 mi NNE 9.2 mph - N/A   Scattered Clouds
7:16 PM - - - N/A% 29.52 in 10.0 mi NNE 15.0 mph 18.4 mph N/A   Overcast
7:36 PM - - - N/A% 29.52 in 10.0 mi North 12.7 mph - N/A   Overcast
7:56 PM - - - N/A% 29.56 in 10.0 mi North 8.1 mph - N/A   Overcast
8:16 PM - - - N/A% 29.56 in 10.0 mi NNE 16.1 mph 19.6 mph N/A   Drizzle
8:36 PM - - - N/A% 29.59 in 10.0 mi NNE 11.5 mph 26.5 mph N/A   Overcast
8:56 PM - - - N/A% 29.61 in 10.0 mi NE 20.7 mph 29.9 mph N/A   Overcast
9:16 PM 34.5 °F 23.1 °F 25.0 °F 68% 29.63 in 10.0 mi NE 20.7 mph 33.4 mph N/A   Overcast
9:36 PM - - - N/A% 29.63 in 10.0 mi NE 19.6 mph 27.6 mph N/A   Overcast
9:56 PM - - - N/A% 29.64 in 10.0 mi NE 20.7 mph 29.9 mph N/A   Overcast
10:16 PM 32.0 °F 21.2 °F 23.2 °F 70% 29.66 in 10.0 mi NNE 16.1 mph 29.9 mph N/A   Overcast
10:36 PM 32.0 °F 26.4 °F 21.9 °F 66% 29.70 in 10.0 mi North 5.8 mph 18.4 mph N/A   Overcast
10:56 PM 31.8 °F - 21.0 °F 64% 29.71 in 10.0 mi Calm Calm - N/A   Overcast
11:16 PM 31.8 °F 23.3 °F 20.7 °F 63% 29.72 in 10.0 mi NE 10.4 mph - N/A   Overcast
11:36 PM - - - N/A% 29.72 in 10.0 mi NE 8.1 mph - N/A   Overcast
11:56 PM - - - N/A% 29.73 in 10.0 mi NE 4.6 mph - N/A   Overcast